Wind_Speed
38 38 39 39 39 40 40 41 41 41 42 42 42 42 42 42 43 43 44 44 45 45 45 45 46 47 47 47 48 49 48 47 47 46 46 45 44 43
39 39 39 38 38 39 39 39 40 40 40 40 40 41 41 41 42 42 43 44 45 45 46 46 47 47 48 49 49 48 47 45 44 44 44 44 44 43
39 39 39 39 39 39 39 38 39 40 39 38 39 40 40 41 41 42 42 43 44 45 46 47 47 47 48 49 49 47 46 44 44 44 44 43 42 41
38 38 38 39 39 39 39 39 39 39 39 38 38 38 39 40 40 41 42 43 44 45 46 47 48 48 49 50 49 48 46 44 42 42 41 41 41 40
37 37 37 37 38 37 37 38 38 38 37 37 37 38 38 39 40 41 42 43 44 45 45 46 48 48 49 49 48 46 45 43 42 41 40 40 40 39
34 34 34 34 35 36 36 37 37 37 37 37 38 38 37 39 40 41 43 44 45 46 46 46 47 48 48 47 45 44 43 42 41 40 39 39 38 38
33 33 33 34 35 36 36 36 36 37 37 37 38 38 39 40 40 41 42 44 45 45 46 46 47 46 45 45 44 43 42 40 39 38 38 37 36 36
34 34 34 35 35 35 36 36 36 36 37 37 37 38 39 40 41 41 43 44 44 44 44 44 44 44 42 41 41 40 39 38 37 37 36 36 35 34
32 33 33 34 34 35 35 35 35 36 36 37 38 38 39 40 41 42 43 43 43 42 42 41 41 41 40 39 39 39 37 37 36 35 34 33 32 32
31 32 32 33 33 34 34 34 35 36 36 37 38 38 39 40 40 41 42 42 42 41 41 40 41 40 40 39 38 37 36 35 35 35 33 31 30 29
31 31 32 33 34 34 34 34 35 36 37 38 38 38 39 40 41 41 41 41 40 39 39 39 39 39 38 38 37 36 36 35 34 33 31 29 27 27
30 31 32 33 33 33 33 33 34 35 36 37 38 39 39 40 41 41 41 40 39 38 38 38 38 37 37 36 36 35 34 33 31 29 28 26 25 25
31 31 32 33 33 34 34 35 36 37 37 38 38 39 39 40 40 40 39 39 38 38 37 38 37 37 36 34 33 33 32 31 30 28 26 26 25 24
32 33 33 34 34 34 35 35 36 37 37 38 38 39 39 39 39 39 39 38 38 37 38 38 37 36 35 33 32 31 30 30 28 27 26 25 24 23
33 34 34 34 34 35 36 36 36 37 38 38 38 38 38 39 39 39 39 38 38 38 37 37 37 35 34 32 32 30 29 28 27 25 25 25 24 23
34 34 35 35 35 35 36 36 36 37 38 38 37 38 38 38 38 39 38 37 37 37 37 37 36 35 33 32 31 29 28 27 26 25 24 24 24 24
34 34 35 35 35 34 35 36 36 37 37 37 37 37 37 37 37 37 37 36 36 36 35 36 35 34 33 32 30 28 27 26 25 24 24 24 23 24
34 35 35 35 35 35 36 36 36 36 36 37 37 37 36 36 36 36 36 36 35 35 35 34 34 33 31 30 29 28 26 25 24 24 24 24 23 22
34 35 35 35 35 36 36 36 36 36 36 36 36 36 36 36 35 35 35 35 34 33 33 33 32 31 30 29 29 28 26 24 24 23 23 22 21 21
35 35 35 35 35 35 35 36 36 36 36 36 36 36 36 36 35 34 34 34 33 32 32 31 30 29 29 29 28 27 25 23 22 22 21 21 20 19
36 36 36 36 36 36 36 36 36 36 36 36 36 35 35 35 34 34 33 33 32 31 31 30 29 28 28 27 26 25 24 24 22 21 20 20 19 19
36 37 36 36 36 36 35 35 35 36 36 36 35 35 35 34 34 34 33 32 32 31 30 30 29 28 28 27 26 24 24 24 23 21 20 20 20 19
37 37 37 36 36 36 35 35 36 36 36 35 35 35 35 34 33 33 33 32 31 31 30 30 29 28 27 26 25 24 23 23 23 22 21 21 21 20
Wind_Direction
265 266 268 270 271 272 273 274 274 275 276 277 277 279 281 281 282 283 284 285 285 285 286 289 290 291 291 292 293 292 290 288 287 285 283 281 279 277
267 268 269 270 271 272 273 275 276 277 278 278 279 280 281 281 282 284 286 288 288 287 287 289 290 291 292 293 294 293 292 289 286 285 282 279 277 275
267 268 269 269 269 272 273 274 277 278 279 280 281 280 281 281 283 285 287 289 290 290 290 290 291 291 292 293 293 293 291 288 286 285 281 278 276 274
267 267 268 269 270 271 273 274 277 279 279 280 281 281 282 283 284 286 289 290 291 291 291 291 291 291 291 293 293 292 290 288 286 284 281 279 277 275
267 267 267 268 269 271 272 274 276 277 278 280 281 282 283 285 286 288 290 291 292 294 294 293 294 294 293 293 293 290 289 287 285 283 280 277 276 274
265 266 267 267 269 271 273 275 276 277 278 280 282 282 284 286 288 289 291 292 293 294 295 296 297 297 295 295 294 292 289 287 285 283 281 279 276 274
265 266 267 269 270 271 273 275 277 278 279 281 282 283 285 287 289 291 293 293 294 295 296 297 298 298 297 296 295 293 289 287 286 283 280 279 277 274
266 266 268 269 271 272 274 275 277 278 280 281 283 285 287 288 289 291 294 295 296 296 296 298 299 299 298 296 295 292 289 288 288 285 281 279 276 273
265 266 267 269 271 272 274 275 276 278 280 282 285 286 288 288 290 292 294 296 297 296 297 298 299 300 299 297 296 295 291 289 288 286 283 280 276 273
265 267 268 270 273 275 275 275 277 280 282 283 286 288 289 289 290 293 295 296 297 297 297 298 299 300 299 298 296 294 292 291 288 285 283 278 274 272
267 269 270 272 274 275 275 276 279 281 282 284 287 289 289 290 292 294 296 296 297 297 297 298 300 300 299 298 295 292 291 292 290 285 280 277 274 271
270 271 272 273 274 275 277 278 280 282 284 285 288 289 290 291 293 295 296 296 297 297 298 299 300 301 300 298 295 291 290 290 288 285 280 278 274 269
271 272 273 275 275 276 277 279 281 283 285 286 288 289 290 291 294 295 296 296 297 298 299 299 300 300 300 299 295 291 289 288 286 283 278 275 272 267
271 273 274 276 276 277 279 281 283 284 285 286 288 289 289 291 293 295 296 296 297 297 298 299 300 300 300 298 296 292 288 285 283 279 276 271 268 264
272 273 275 276 277 278 280 282 284 285 286 287 288 289 289 291 292 293 294 294 295 296 297 299 300 301 300 298 296 293 288 284 281 277 275 271 266 263
271 273 275 276 276 278 280 282 284 286 287 288 289 289 290 291 292 293 294 294 295 296 296 298 299 300 300 298 296 293 288 283 280 278 274 269 265 262
271 273 274 275 276 278 281 283 285 286 288 289 290 290 291 292 293 294 294 294 295 295 296 296 298 299 299 297 295 293 287 281 279 276 273 270 265 260
272 273 274 275 277 279 282 284 285 287 289 290 291 291 291 292 292 293 294 295 295 295 296 296 297 297 296 295 293 291 288 281 278 276 274 272 266 259
272 273 274 275 277 280 281 283 285 287 289 290 290 291 292 293 293 294 294 295 295 295 296 296 295 295 295 294 293 291 287 282 277 276 274 270 266 258
273 273 274 276 278 280 281 283 284 286 288 289 290 292 293 293 293 294 295 295 295 295 295 295 295 294 293 294 293 290 285 280 275 275 273 269 263 256
273 273 275 278 280 281 282 283 285 286 288 289 290 291 292 293 293 294 295 295 295 294 294 294 295 294 293 294 292 287 282 278 273 273 269 262 258 253
274 275 277 279 280 281 282 283 285 287 288 289 290 291 292 293 293 294 294 294 293 294 294 293 292 291 291 291 289 284 280 277 272 268 265 259 255 250
275 276 277 279 279 280 281 283 285 287 288 289 290 291 291 291 292 293 294 293 291 292 293 292 290 289 288 289 286 281 278 274 269 265 263 259 255 247
Height
5702 5702 5702 5702 5702 5702 5702 5701 5701 5701 5701 5700 5698 5696 5694 5692 5690 5688 5685 5683 5680 5677 5674 5670 5667 5664 5660 5656 5651 5647 5642 5638 5634 5631 5628 5625 5623 5622
5693 5693 5693 5693 5693 5693 5693 5692 5691 5691 5691 5690 5688 5686 5684 5682 5679 5677 5674 5671 5668 5665 5662 5658 5655 5651 5647 5643 5638 5633 5629 5625 5620 5617 5614 5612 5610 5608
5684 5684 5684 5684 5684 5684 5683 5683 5682 5681 5680 5680 5678 5676 5673 5671 5669 5666 5663 5660 5657 5653 5650 5646 5643 5639 5634 5630 5625 5620 5615 5612 5608 5604 5601 5599 5597 5596
5674 5675 5675 5674 5675 5675 5674 5673 5672 5671 5670 5670 5668 5665 5663 5661 5658 5656 5653 5649 5646 5642 5638 5634 5630 5625 5621 5616 5611 5606 5602 5598 5594 5591 5589 5587 5585 5583
5665 5665 5665 5665 5665 5665 5665 5664 5663 5662 5661 5660 5658 5656 5653 5650 5648 5645 5642 5638 5635 5631 5626 5622 5617 5612 5607 5602 5597 5593 5589 5586 5582 5579 5576 5574 5572 5571
5656 5656 5656 5656 5656 5656 5655 5655 5654 5653 5651 5650 5648 5646 5643 5640 5637 5634 5631 5627 5623 5619 5614 5610 5605 5599 5594 5589 5585 5580 5576 5573 5569 5567 5564 5562 5560 5558
5647 5647 5647 5647 5647 5647 5646 5645 5644 5643 5641 5640 5638 5636 5633 5630 5627 5624 5620 5617 5612 5607 5602 5598 5593 5588 5582 5578 5573 5568 5564 5561 5558 5555 5553 5550 5548 5547
5638 5638 5638 5638 5638 5637 5637 5636 5635 5633 5632 5630 5628 5626 5623 5620 5616 5613 5609 5606 5602 5597 5591 5587 5581 5576 5571 5566 5562 5557 5553 5550 5547 5544 5541 5539 5537 5536
5629 5629 5629 5629 5628 5628 5627 5626 5625 5623 5622 5620 5618 5615 5612 5610 5606 5603 5598 5594 5590 5585 5580 5576 5570 5565 5560 5555 5550 5546 5542 5539 5536 5533 5530 5528 5526 5525
5620 5620 5620 5620 5619 5619 5618 5617 5615 5614 5612 5610 5608 5605 5601 5598 5595 5591 5587 5583 5579 5574 5569 5565 5560 5555 5550 5545 5540 5536 5532 5529 5526 5522 5519 5518 5517 5516
5611 5611 5611 5611 5610 5609 5609 5607 5606 5604 5602 5599 5597 5594 5591 5587 5584 5580 5576 5572 5568 5564 5559 5554 5550 5545 5540 5536 5531 5527 5523 5520 5516 5513 5510 5509 5508 5507
5602 5602 5602 5602 5601 5600 5599 5598 5596 5594 5592 5589 5587 5583 5580 5577 5573 5569 5565 5561 5557 5554 5549 5545 5540 5535 5532 5527 5522 5518 5514 5511 5508 5505 5503 5502 5501 5500
5593 5593 5593 5592 5591 5590 5589 5588 5586 5584 5582 5579 5576 5573 5570 5566 5563 5558 5554 5550 5547 5543 5539 5535 5530 5525 5521 5518 5514 5510 5506 5503 5500 5498 5496 5495 5494 5493
5584 5583 5583 5582 5581 5580 5579 5577 5575 5573 5571 5568 5565 5562 5559 5556 5552 5548 5544 5540 5536 5533 5529 5524 5520 5516 5511 5508 5505 5501 5498 5494 5492 5490 5488 5488 5487 5486
5573 5573 5572 5571 5571 5569 5568 5566 5564 5562 5560 5557 5554 5551 5548 5545 5541 5537 5533 5530 5526 5522 5518 5514 5510 5506 5501 5498 5495 5492 5489 5487 5484 5482 5481 5480 5480 5479
5563 5563 5562 5561 5560 5559 5557 5555 5553 5551 5548 5546 5543 5540 5537 5533 5530 5526 5522 5519 5516 5512 5508 5504 5500 5496 5492 5489 5486 5483 5480 5478 5476 5474 5473 5473 5472 5472
5552 5552 5551 5550 5549 5548 5546 5544 5542 5540 5537 5534 5532 5529 5525 5522 5519 5515 5511 5508 5505 5502 5498 5494 5490 5487 5483 5480 5477 5474 5471 5470 5468 5467 5466 5465 5464 5463
5541 5541 5540 5539 5538 5537 5535 5533 5531 5529 5526 5523 5520 5517 5514 5511 5508 5505 5501 5498 5495 5491 5488 5485 5481 5478 5475 5471 5469 5466 5464 5462 5460 5459 5457 5456 5456 5456
5530 5529 5529 5528 5527 5525 5524 5522 5520 5518 5515 5512 5509 5506 5504 5501 5497 5494 5491 5488 5485 5482 5478 5475 5472 5469 5467 5464 5461 5458 5456 5454 5453 5451 5450 5449 5449 5449
5519 5518 5517 5516 5515 5514 5512 5511 5509 5507 5504 5501 5498 5496 5493 5490 5487 5484 5481 5478 5475 5472 5469 5466 5463 5460 5458 5456 5453 5451 5448 5447 5446 5445 5444 5443 5443 5443
5508 5507 5506 5505 5504 5502 5501 5499 5498 5495 5493 5490 5488 5485 5482 5479 5477 5474 5471 5468 5465 5463 5460 5457 5454 5452 5449 5447 5445 5443 5442 5440 5439 5438 5437 5437 5438 5438
5496 5496 5495 5494 5493 5491 5490 5488 5486 5484 5482 5479 5477 5474 5471 5469 5466 5463 5461 5458 5456 5453 5451 5448 5446 5443 5441 5439 5438 5436 5435 5434 5432 5432 5432 5432 5432 5433
5485 5484 5483 5482 5481 5480 5479 5477 5475 5473 5471 5468 5466 5463 5461 5458 5456 5453 5451 5448 5446 5444 5442 5439 5437 5435 5433 5431 5430 5429 5428 5427 5426 5426 5426 5426 5427 5428